Terminal Aerodrome Forecast
Issued by NWS

Home | Current Version | Previous Version | Text Only | Print | Product List | Glossary On
Versions: 1 2 3 4 5 6 7 8 9 10 11 12 13 14 15 16 17 18 19 20 21 22 23 24 25 26 27 28 29 30 31 32 33 34 35 36 37 38 39 40 41 42 43 44 45 46 47 48 49 50
000
FTUS46 KEKA 302100 AAA
TAFACV
TAF AMD
KACV 302134Z 3022/3118 31005KT P6SM SCT004
      TEMPO 3022/3024 1 1/2SM BR BKN002
     FM310000 16003KT 3SM BR OVC002
     FM310300 VRB03KT 1 1/2SM BR OVC002=

USA.gov is the U.S. government's official web portal to all federal, state and local government web resources and services.